map of TPF home
TPF - Airport
Location
City:  Tampa, Florida, United States
Name:Peter O Knight Airport
ICAO:KTPF
IATA:TPF
FAA LID:TPF

Details
Type:Airport (Airfield)
Use:Public/Civil
Latitude:2754'56"N (27.915444)
Longitude:8226'58"W (-82.449388)
Datum:WGS 1984
Elevation:7 ft (2 m)
Variation:5.67W (WMM2015 magnetic declination)
-0.10 annual change
Runways:2
Longest:3583 × 100 ft (1092 × 30.5 m), paved

Time
Time Zone:UTC-5 (DST-4)
Local Time:

Weather
METAR:KTPF 211935Z AUTO 29006KT CLR 32/22 A3007 RMK AO2 PWINO

Related Locations
Nearby:
Farthest:USL: 11462 mi / 18447 km
Useless Loop, WA, AU

Find:

   beyond  
but within

Other Information
Maps:
NOTAMs:
Links:
Sources:

  
  • flag of United States
  • flag of Florida
  • flag of Tampa
  

Sectional Chart

Flight Planning
at skyvector.com

Satellite Image

Google Maps Satellite view

 

Copyright © 2004-2018 Karl L. Swartz. All rights reserved.
The Great Circle Mapper name and logo are trademarks of the Great Circle Mapper.
All other trademarks mentioned herein belong to their respective owners.
Please see credits for attibutions and further copyright information.

  Follow gcmap on Facebook Follow gcmap on Twitter Follow gcmap on Google+ GCmap on LinkedIn

hCard Microformat

Geo Microformat